HIMAWARI-8

Last updated on Sun Oct 26 2025 00:02:30 GMT+0000 (Coordinated Universal Time)

1 40267U 14060A 25298.50306551 -.00000263 00000+0 00000+0 0 9991 2 40267 0.0253 151.6896 0000745 57.4043 146.8401 1.00271100 40400
UTC large
Height (km)
Speed (km/s)
/
Latitude / Longitude
Inclination (degrees)
Orbital Period (minutes)
Azimuth
Elevation
Range (km)
Doppler Factor

Next 0 passes for location: London (51.5072 / 0.1276)

Sorry there are no passes over London.